STARLINK-34205

Last updated on Sat Aug 02 2025 00:02:05 GMT+0000 (Coordinated Universal Time)

1 64741U 25144T 25213.58335648 .00068066 00000+0 16990-2 0 9995 2 64741 53.1600 124.9446 0001180 105.6331 159.2597 15.39574885 6096
UTC large
Height (km)
Speed (km/s)
/
Latitude / Longitude
Inclination (degrees)
Orbital Period (minutes)
Azimuth
Elevation
Range (km)
Doppler Factor

Next 0 passes for location: London (51.5072 / 0.1276)

Sorry there are no passes over London.